Regional Weather Roundup
Issued by NWS

Home | Current Version | Previous Version | Graphics & Text | Print | Product List | Glossary On
Versions: 1 2 3 4 5 6 7 8 9 10 11 12 13 14 15 16 17 18 19 20 21 22 23 24 25 26 27 28 29 30 31 32 33 34 35 36 37 38 39 40 41 42 43 44 45 46 47 48 49 50
000
ASUS43 KBIS 282010
RWRND

NORTH DAKOTA REGIONAL WEATHER ROUNDUP
NATIONAL WEATHER SERVICE BISMARCK ND
300 PM CDT TUE JUL 28 2015

NOTE: "FAIR" INDICATES FEW OR NO CLOUDS BELOW 12,000 FEET WITH NO
SIGNIFICANT WEATHER AND/OR OBSTRUCTIONS TO VISIBILITY.


NDZ001>003-009>011-017-282100-
NORTHWEST NORTH DAKOTA

CITY           SKY/WX    TMP DP  RH WIND       PRES   REMARKS
WILLISTON      LGT RAIN  62  53  72 W38G49    29.59R
MINOT          LGT RAIN  67  49  52 SW31G53   29.52R
MINOT AFB      CLOUDY    68  54  61 SW35G45   29.48S
$$

NDZ018>021-031>035-040>046-282100-
SOUTHWEST NORTH DAKOTA

CITY           SKY/WX    TMP DP  RH WIND       PRES   REMARKS
BISMARCK       PTSUNNY   73  50  44 W36G49    29.74R
DICKINSON      CLOUDY    64  47  53 W43G58    29.78R
GARRISON         N/A     64  52  64 W26G38    29.62R
HETTINGER ARPT CLOUDY    65  46  50 W37G53    29.90R
$$

NDZ004>008-012>016-024-026-027-054-282100-
NORTHEAST NORTH DAKOTA

CITY           SKY/WX    TMP DP  RH WIND       PRES   REMARKS
GRAND FORKS    PTSUNNY   76  55  48 SW22G33   29.62R
GRND FRKS AFB  PTSUNNY   76  55  48 SW28G37   29.63R
DEVILS LAKE    CLOUDY    72  52  49 SW26G43   29.59S
$$

NDZ022-023-025-028>030-036>039-047>053-282100-
SOUTHEAST NORTH DAKOTA

CITY           SKY/WX    TMP DP  RH WIND       PRES   REMARKS
FARGO          MOSUNNY   79  56  45 SW22G31   29.71R
JAMESTOWN      PTSUNNY   75  52  44 SW25G37   29.70F
$$



USA.gov is the U.S. government's official web portal to all federal, state and local government web resources and services.